Location: Mentone
(34.5413°N, 85.5351°W)
Time: 02:02:32
(UTC-05:00)

Vanguard 1 - Visible Passes

Search period start: 31 October 2014 00:00
Search period end: 09 November 2014 23:00
Orbit: 652 x 3835 km, 34.2° (Epoch: 30 October)

Date Brightness Start Highest point End Pass type
(mag) Time Alt. Az. Time Alt. Az. Time Alt. Az.
31 Oct 12.0 05:16:35 10° SSW 05:25:09 30° SSE 05:30:36 10° E visible
01 Nov 13.1 03:20:56 13° S 03:24:46 15° SSE 03:29:49 10° ESE visible
01 Nov 11.5 05:37:37 10° SW 05:46:51 40° SSE 05:52:24 10° E visible
02 Nov 12.7 02:42:20 18° S 02:46:42 22° SSE 02:53:00 10° ESE visible
02 Nov 11.0 04:59:03 10° SW 05:08:30 51° SSE 05:14:01 10° E visible
03 Nov 12.3 03:03:34 22° S 03:08:34 30° SSE 03:15:21 10° E visible
03 Nov 10.7 05:20:45 10° WSW 05:30:06 63° SSE 05:35:31 10° E visible
04 Nov 13.4 01:11:50 12° SE 01:11:50 12° SE 01:13:24 10° ESE visible
04 Nov 11.9 03:24:39 25° SSW 03:30:22 39° SSE 03:37:17 10° E visible
05 Nov 13.0 01:32:48 19° SE 01:32:48 19° SE 01:37:06 10° ESE visible
05 Nov 11.5 03:45:37 26° SW 03:52:07 49° SSE 03:58:58 10° E visible
06 Nov 12.7 01:53:39 27° SE 01:53:39 27° SE 01:59:45 10° E visible
06 Nov 11.2 04:06:28 24° SW 04:13:50 60° SSE 04:20:32 10° E visible
07 Nov 12.3 02:14:24 37° SE 02:14:24 37° SE 02:21:52 10° E visible
07 Nov 10.9 04:27:12 21° WSW 04:35:30 71° SSE 04:42:01 10° E visible
08 Nov 12.0 02:35:05 47° SSE 02:35:06 47° SSE 02:43:42 10° E visible
08 Nov 10.7 04:47:52 17° WSW 04:57:10 80° S 05:03:28 10° E visible
09 Nov 13.4 00:42:53 12° E 00:42:53 12° E 00:43:33 10° E visible
09 Nov 11.6 02:55:40 55° S 02:56:54 57° SSE 03:05:21 10° E visible
09 Nov 10.6 05:08:27 12° W 05:18:50 87° S 05:24:55 10° E visible
